Weather WX

World > North America > United States > Pennsylvania

Bridgeville, Pennsylvania Regional Weather

Lat: 40.36N, Lon: 80.11W
Wx Zone: PAZ021
Warning FLW WEATHER ALERT - FLASH FLOOD WATCH (More Info. Click Here) Warning
Feedback

Bridgeville, PA Regional Weather

Expires:201906171700;;635054
ASUS41 KPHI 171612
RWRPHI

REGIONAL WEATHER ROUNDUP
NATIONAL WEATHER SERVICE MOUNT HOLLY NJ
1200 PM EDT MON JUN 17 2019

NOTE:  "FAIR" INDICATES FEW OR NO CLOUDS BELOW 12,000 FEET WITH NO
SIGNIFICANT WEATHER AND/OR OBSTRUCTIONS TO VISIBILITY.

 * = STATION DOES NOT REPORT PRECIPITATION (E.G. RAIN, SNOW, ETC.) 
        OR FOG.


PAZ001-021-NYZ056-072-MDZ011-DCZ001-171700-
OTHER NEARBY LOCATIONS
  
CITY           SKY/WX    TMP DP  RH WIND       PRES   REMARKS
HARRISBURG     PTSUNNY   78  68  71 CALM      29.99R                  
STATE COLLEGE  DRIZZLE   64  64 100 CALM      30.02R                  
WILLIAMSPORT   CLOUDY    69  61  75 CALM      30.00R                  
BINGHAMTON     FAIR      64  55  72 SE7       30.03R                  
NEW YORK CITY  LGT RAIN  73  65  75 W3        30.01                   
BALTIMORE      PTSUNNY   88  65  46 W7        29.98R HX  90           
WASHINGTON DC  PTSUNNY   85  68  56 S9        29.99R                  

$$
  

SKY/WX - Weather  TMP - Temperature  DP - Dew Point  RH - Relative Humidity
WIND - Wind Direction/Speed PRES - Barometric Pressure VSB - Visibility
WCI - Wind Chill Index E13G22 Wind - East Wind 13 mph/Gusts of 22 mph